This demonstration page uses our WeatherBlox Daily Observations layout. Learn more.

Left ArrowRight Arrow

Hourly Observations for March 1, 2019

Temp ( °F °C ) Dew Point ( °F °C ) Humidity (%) Winds ( mph kmh ) Pressure ( in mb ) Visibility ( mi km ) Precip ( " mm )
12:51 am 00:51 Clear 48 8.9 35 1.7 61 61 SSE 6 9 29.99 1016 10 16 N/A
1:51 am 01:51 Clear 45 7.2 35 1.7 68 68 E 5 7 29.98 1015 10 16 N/A
2:51 am 02:51 Clear 43 6.1 35 1.7 74 74 SSE 5 7 29.97 1015 10 16 N/A
3:51 am 03:51 Clear 41 5 35 1.7 79 79 SSE 5 7 29.96 1015 10 16 N/A
4:51 am 04:51 Clear 41 5 35 1.7 79 79 SE 3 6 29.97 1015 10 16 N/A
5:51 am 05:51 Clear 42 5.6 35 1.7 76 76 E 3 6 30.00 1016 10 16 N/A
6:51 am 06:51 Sunny 42 5.6 35 1.7 76 76 N N/A 30.01 1016 10 16 N/A
7:51 am 07:51 Sunny 46 7.8 36 2.2 68 68 SSE 5 7 30.04 1017 10 16 N/A
8:51 am 08:51 Sunny 50 10 36 2.2 59 59 N N/A 30.05 1018 10 16 N/A
9:51 am 09:51 Sunny 57 13.9 38 3.3 49 49 WNW 3 6 30.04 1017 10 16 N/A
10:51 am 10:51 Sunny 61 16.1 37 2.8 41 41 WSW 3 6 30.02 1017 10 16 N/A
11:51 am 11:51 Sunny 66 18.9 36 2.2 33 33 SE 3 6 29.98 1015 10 16 N/A
12:51 pm 12:51 Sunny 68 20 33 0.6 27 27 WNW 6 9 29.97 1015 10 16 N/A
1:51 pm 13:51 Sunny 72 22.2 32 undefined 23 23 WNW 7 11 29.92 1013 10 16 N/A
2:51 pm 14:51 Sunny 73 22.8 34 1.1 24 24 W 10 17 29.91 1013 10 16 N/A
3:51 pm 15:51 Sunny 72 22.2 35 1.7 26 26 W 10 17 29.91 1013 10 16 N/A
4:51 pm 16:51 Sunny 72 22.2 35 1.7 26 26 WNW 10 17 29.90 1013 10 16 N/A
5:51 pm 17:51 Sunny 70 21.1 31 -0.6 23 23 NW 9 15 29.91 1013 10 16 N/A
6:51 pm 18:51 Clear 64 17.8 33 0.6 32 32 WNW 3 6 29.93 1014 10 16 N/A
7:51 pm 19:51 Clear 61 16.1 33 0.6 35 35 NW 6 9 29.94 1014 10 16 N/A
8:51 pm 20:51 Clear 58 14.4 34 1.1 41 41 W 3 6 29.96 1015 10 16 N/A
9:51 pm 21:51 Clear 54 12.2 34 1.1 47 47 WNW 6 9 29.97 1015 10 16 N/A
10:51 pm 22:51 Clear 52 11.1 34 1.1 50 50 N N/A 29.96 1015 10 16 N/A
11:51 pm 23:51 Clear 47 8.3 35 1.7 63 63 E 3 6 29.96 1015 10 16 N/A

Powered by AerisWeather